Location: Bannatyne
(13.0833°N, 59.5333°W)
Time: 11:22:39
(UTC+00:00)

Explorer 7 - Pass Details

Date: 01 February 2020
Orbit: 485 x 679 km, 50.3° (Epoch: 25 February)

Event Time Altitude Azimuth Distance (km) Brightness Sun altitude
Rises 09:03:13 0° 296° (WNW) 2,644 - -19.9°
Reaches altitude 10° 09:05:54 10° 277° (W) 1,791 - -19.3°
Maximum altitude 09:08:44 18° 233° (SW) 1,384 - -18.6°
Exits shadow 09:09:22 18° 221° (SW) 1,418 8.6 -18.5°
Drops below altitude 10° 09:11:41 10° 189° (S) 1,874 9.6 -17.9°
Sets 09:14:35 0° 171° (S) 2,817 10.8 -17.2°
